Погода в Кочабамбе

Боливия     17°23′47″S   66°10′41″W
темп.,
°C
ветер,
м/с
пор.,
м/с
влажн.,
%
обл.,
%
осадки,
мм/ч
давл.,
гПа
погр.,
м
25 июля, вс
вс2523:00+14юз124616 0.0 101422
02:00+12зсз11510 0.0 101419
05:00+11зсз11490 0.0 101417
08:00+13зсз12370 0.0 101677
11:00+20ю12202 0.0 10141361
14:00+23юв24121 0.0 10073139
17:00+23сз351778 0.0 10052424
20:00+16с024197 0.0 101056
26 июля, пн
пн2623:00+13зсз11525 0.0 101356
02:00+12з12532 0.0 101432
05:00+10з11531 0.0 101424
08:00+12з12460 0.0 1017106
11:00+18юв11301 0.0 10151203
14:00+21вюв24237 0.0 10082370
17:00+22всв332510 0.0 10051555
20:00+15св12525 0.0 101158
27 июля, вт
вт2723:00+13ююв23630 0.0 101684
02:00+12ююв016611 0.1 101544
05:00+11ю126819 0.1 101649
08:00+12з115716 0.1 1018154
11:00+17всв134026 0.0 10151449
14:00+19ссз133526 0.0 10101827
17:00+20ссз13327 0.0 10071709
20:00+13юз12542 0.0 101395
28 июля, ср
ср2823:00+11ю12635 0.0 101659
02:00+10юз11675 0.0 101653
05:00+9юз12695 0.0 101648
08:00+11ю126161 0.0 1018185
11:00+16ююв124020 0.0 10151478
14:00+20св443245 0.0 10092194
17:00+18в333849 0.0 10091002
20:00+12юв335971 0.0 1016205
29 июля, чт
чт2923:00+10ююв336396 0.0 1020357
02:00+9ююв336781 0.0 1020308
05:00+7ююв227116 0.0 1020134
08:00+7юв227083 0.0 1023211
11:00+13юв114986 0.0 1019842
14:00+18св133651 0.0 10111766
17:00+18зсз333417 0.0 10091627
20:00+12ююз23531 0.0 1015108